EW2821 Weather Reports


Display with metric or nautical units.
time (UTC)temp
F
wind
direction
speed
MPH
gust
MPH
rain 1hr
in
rain 24hr
in
rain mn
in
humidity
%
barometer
mb
20260506154503 53 35 5.0 12.0 0.00 0.79 0.11 68 1013.4
20260506153001 52 332 4.0 15.0 0.00 0.79 0.11 71 1013.1
20260506151558 52 308 9.0 12.0 0.00 0.79 0.11 69 1013.1
20260506150155 52 326 5.0 11.0 0.00 0.79 0.11 74 1013.1
20260506144603 51 325 4.0 12.0 0.00 0.79 0.11 74 1012.8
20260506143049 50 323 9.0 12.0 0.00 0.79 0.11 70 1012.7
20260506141545 50 303 7.0 13.0 0.00 0.79 0.11 74 1012.5
20260506140044 49 333 6.0 11.0 0.00 0.79 0.11 76 1012.6
20260506134537 48 326 8.0 11.0 0.00 0.79 0.11 79 1012.6
20260506133033 48 284 5.0 10.0 0.00 0.79 0.11 81 1012.5
20260506131534 47 291 5.0 8.0 0.00 0.79 0.11 84 1012.5
20260506130025 46 295 4.0 7.0 0.00 0.79 0.11 85 1012.4
20260506124523 45 334 2.0 6.0 0.00 0.79 0.11 89 1012.2
20260506123023 44 321 3.0 6.0 0.00 0.79 0.11 91 1012.0
20260506121522 43 295 3.0 7.0 0.00 0.79 0.11 93 1012.0
20260506120013 43 314 2.0 5.0 0.00 0.79 0.11 93 1011.5
20260506114509 43 322 2.0 5.0 0.00 0.79 0.11 93 1010.9
20260506113016 42 308 1.0 5.0 0.00 0.79 0.11 94 1011.0
20260506111503 42 314 2.0 5.0 0.00 0.79 0.11 94 1010.7
20260506110100 42 339 1.0 3.0 0.00 0.79 0.11 94 1010.1
20260506104601 42 340 1.0 2.0 0.00 0.79 0.11 94 1010.1
20260506103119 42 340 1.0 4.0 0.00 0.79 0.11 94 1010.3
20260506101555 42 338 1.0 5.0 0.00 0.79 0.11 94 1010.0
20260506100055 42 356 2.0 6.0 0.00 0.79 0.11 93 1009.6
20260506094603 41 10 3.0 4.0 0.00 0.80 0.11 93 1009.7
20260506093054 41 10 3.0 6.0 0.00 0.80 0.11 93 1009.4
20260506091559 42 353 1.0 5.0 0.00 0.80 0.11 93 1009.3
20260506090056 41 326 2.0 6.0 0.00 0.80 0.11 93 1009.6
20260506084612 41 335 3.0 8.0 0.00 0.96 0.11 93 1009.3
20260506083051 41 5 1.0 5.0 0.00 0.96 0.11 93 1009.1
20260506081550 41 320 2.0 6.0 0.01 0.96 0.11 93 1009.2
20260506073053 42 349 4.0 8.0 0.01 1.18 0.11 91 1009.4
20260506071542 42 346 3.0 11.0 0.00 1.17 0.10 92 1009.1
20260506061553 42 337 3.0 10.0 0.04 1.28 0.10 93 1009.1
20260506044529 44 44 4.0 11.0 0.05 1.23 0.05 94 1008.9
20260506043036 44 62 6.0 10.0 0.06 1.22 0.04 94 1009.4
20260506041526 44 24 4.0 12.0 0.07 1.20 0.02 94 1009.4
20260506040019 45 348 4.0 11.0 0.10 1.18 0.00 95 1009.2
20260506034516 45 81 6.0 13.0 0.11 1.18 1.18 95 1008.1
20260506033018 45 20 4.0 8.0 0.09 1.15 1.15 95 1008.5
20260506031513 45 10 4.0 11.0 0.06 1.12 1.12 95 1009.0
20260506030009 46 360 6.0 12.0 0.04 1.08 1.08 95 1009.1
20260506024524 46 70 5.0 12.0 0.04 1.07 1.07 95 1008.2
20260506023007 46 14 7.0 13.0 0.04 1.06 1.06 95 1008.1
20260506021506 46 321 2.0 6.0 0.07 1.06 1.06 95 1008.6
20260506020006 46 103 2.0 6.0 0.06 1.04 1.04 95 1008.6
20260506014507 46 14 3.0 6.0 0.06 1.03 1.03 95 1008.7
20260506013003 46 20 1.0 7.0 0.08 1.02 1.02 95 1008.5
20260506011502 46 38 2.0 6.0 0.07 0.99 0.99 95 1008.4
20260506010002 46 29 2.0 9.0 0.09 0.98 0.98 95 1008.1
20260506004604 47 26 1.0 9.0 0.11 0.97 0.97 95 1008.1
20260506003100 47 355 3.0 10.0 0.10 0.94 0.94 95 1008.3
20260506001558 47 5 6.0 10.0 0.10 0.93 0.93 95 1008.4
20260506000056 47 360 4.0 12.0 0.07 0.89 0.89 95 1008.4
20260505234606 47 330 9.0 15.0 0.06 0.86 0.86 95 1008.1
20260505233051 48 345 7.0 13.0 0.04 0.84 0.84 95 1008.0
20260505231604 48 352 6.0 14.0 0.04 0.83 0.83 95 1008.2
20260505230052 49 28 5.0 13.0 0.05 0.82 0.82 95 1008.1
20260505224546 49 338 6.0 13.0 0.04 0.80 0.80 95 1008.2
20260505223044 50 355 9.0 20.0 0.04 0.80 0.80 94 1008.3
20260505221540 51 346 11.0 18.0 0.03 0.79 0.79 94 1008.0
20260505220040 54 336 11.0 29.0 0.02 0.77 0.77 92 1007.9
20260505214559 58 229 7.0 11.0 0.02 0.76 0.76 95 1007.4
20260505213038 57 187 6.0 14.0 0.02 0.76 0.76 95 1007.3
20260505211535 57 214 7.0 13.0 0.04 0.76 0.76 95 1007.3
20260505210037 57 185 9.0 14.0 0.06 0.75 0.75 95 1007.5
20260505204535 58 181 6.0 10.0 0.08 0.74 0.74 95 1007.3
20260505203034 58 189 11.0 16.0 0.10 0.74 0.74 94 1007.3
20260505201533 58 197 6.0 11.0 0.09 0.72 0.72 94 1007.3
20260505200041 58 172 6.0 10.0 0.10 0.69 0.69 94 1007.5
20260505194533 59 192 5.0 10.0 0.09 0.66 0.66 94 1007.7
20260505193035 58 216 6.0 11.0 0.10 0.64 0.64 94 1008.1
20260505191531 58 215 6.0 11.0 0.09 0.63 0.63 93 1008.2
20260505190031 59 222 5.0 11.0 0.06 0.59 0.59 92 1008.4
20260505184533 59 192 8.0 13.0 0.05 0.56 0.56 91 1008.5
20260505183041 59 189 6.0 12.0 0.04 0.54 0.54 91 1008.3
20260505181530 60 180 6.0 12.0 0.04 0.54 0.54 90 1008.3
20260505180029 60 206 8.0 12.0 0.03 0.53 0.53 88 1008.3
20260505174529 61 197 6.0 11.0 0.01 0.51 0.51 85 1008.3
20260505173029 62 231 7.0 12.0 0.00 0.50 0.50 84 1008.4
20260505171528 62 226 5.0 10.0 0.00 0.50 0.50 84 1008.4
20260505170029 62 201 4.0 14.0 0.00 0.50 0.50 83 1008.6
20260505164527 62 282 5.0 11.0 0.00 0.50 0.50 84 1008.4
20260505163028 62 260 4.0 10.0 0.00 0.50 0.50 83 1008.6
20260505161526 62 245 3.0 10.0 0.00 0.50 0.50 84 1008.6